Wind_Speed
12 12 11 9 8 7 6 6 8 9 9 10 11 10 10 10 10 11 11 10 9 7 6 7 9 6 5 7 7 6 6 7 7 5 4 4 5 3 2 4 4 6 7 8 9 10 9 8 8 8 9 10 11 12 13 13 13 13 13 14 15 14 13
11 11 11 10 9 8 8 8 8 8 8 9 9 9 9 9 10 12 13 13 11 8 6 7 8 7 6 6 7 7 7 7 8 10 9 8 8 7 5 3 2 3 2 2 3 5 6 8 8 8 10 11 12 13 14 13 10 9 9 10 11 11 10
11 13 12 10 10 10 10 9 7 6 8 8 8 8 9 10 10 10 12 12 12 9 8 8 7 7 7 7 7 7 6 6 7 9 9 8 8 7 6 5 5 5 6 5 5 5 5 5 5 6 9 11 12 13 13 12 11 9 8 8 8 9 9
13 16 13 10 11 11 11 9 7 6 6 6 7 8 8 8 8 8 10 11 11 11 10 10 9 10 10 9 8 7 6 5 6 6 7 7 6 6 7 7 6 6 4 2 1 1 1 3 5 7 8 9 10 11 12 13 13 13 11 9 9 10 11
16 16 12 11 12 12 11 10 9 8 5 3 5 6 7 7 7 7 7 8 10 10 10 10 9 9 10 10 10 9 8 7 5 4 4 4 3 3 6 7 6 6 6 5 5 5 4 4 5 7 8 9 10 10 10 11 12 12 11 8 6 8 9
16 15 12 12 13 12 12 12 10 8 6 3 3 3 4 5 6 6 5 5 6 7 8 9 8 7 7 8 9 8 7 7 5 4 4 3 2 1 2 4 4 4 4 3 2 1 2 2 2 4 6 7 9 9 7 6 7 7 6 5 4 4 5
16 15 13 13 14 13 13 12 11 9 7 5 4 3 2 4 5 5 5 4 4 5 5 6 7 8 7 5 6 7 6 6 5 3 3 3 2 1 1 2 2 2 1 1 2 2 1 1 2 4 6 7 7 8 8 6 7 7 4 3 5 5 5
15 15 14 13 14 14 14 13 13 10 8 7 7 5 3 4 4 4 4 4 4 4 5 5 6 8 7 4 5 5 5 5 4 3 3 2 2 2 2 1 1 1 2 2 1 0 1 3 3 4 5 7 8 8 6 4 5 7 5 2 2 5 4
16 17 16 14 14 14 14 13 14 12 10 10 9 6 4 5 4 3 4 5 4 4 4 4 5 6 6 4 4 4 4 4 3 3 3 3 3 3 3 3 4 4 4 4 5 4 4 4 5 5 4 5 7 9 8 5 4 6 5 3 2 2 3
18 18 18 16 15 15 14 13 13 13 12 12 11 8 6 6 5 3 3 4 5 4 4 4 4 4 4 4 4 3 3 4 4 3 3 4 4 4 5 5 5 5 5 5 5 5 5 5 6 6 5 4 5 7 8 8 6 4 5 6 5 7 7
17 17 18 16 15 16 16 14 13 13 13 13 13 11 8 6 5 5 4 3 3 4 4 4 4 3 4 4 3 3 2 3 3 3 3 3 4 4 5 5 4 5 5 4 3 3 3 4 4 5 6 6 6 6 6 8 9 6 4 3 4 9 13
17 16 16 15 14 15 16 14 13 13 13 13 13 13 10 7 6 5 5 5 3 3 4 5 5 4 6 5 4 4 2 2 2 1 1 1 2 3 3 3 4 5 5 5 5 5 5 4 4 5 5 5 6 6 6 8 10 8 6 8 8 10 14
19 18 16 15 14 15 15 14 12 12 14 13 14 14 11 9 8 7 7 7 6 6 6 6 6 6 7 7 5 6 4 3 4 3 1 1 1 0 1 2 2 4 5 5 5 5 7 9 9 9 9 8 7 7 7 8 10 12 10 10 14 15 15
18 19 18 17 16 16 16 13 11 12 13 13 14 15 12 10 11 8 8 9 9 9 8 8 9 8 9 8 7 8 7 5 6 6 4 3 3 2 1 1 2 3 5 6 5 4 6 8 10 11 12 11 9 10 10 9 11 15 14 13 14 15 15
17 17 18 19 17 17 17 14 12 14 14 13 14 15 13 11 12 11 10 11 11 11 11 11 11 10 11 10 9 10 9 6 6 9 8 5 5 5 2 2 4 5 5 5 5 4 2 4 4 5 6 7 7 8 10 11 13 16 18 17 15 15 13
15 15 16 18 18 17 17 16 16 16 15 15 15 15 15 13 13 14 13 13 13 14 14 13 13 13 12 12 12 12 12 9 6 10 10 6 5 8 7 3 4 7 7 6 6 5 5 4 3 2 5 8 9 10 11 12 14 16 19 19 17 16 15
15 16 16 18 19 20 19 18 18 15 14 15 15 16 18 15 14 16 16 14 14 15 16 16 17 17 15 14 15 15 14 12 10 11 10 7 6 10 10 6 4 7 8 8 7 6 4 4 4 5 8 9 8 9 10 11 13 14 17 19 19 18 17
16 18 18 18 20 22 21 21 19 16 14 17 17 16 17 14 14 18 19 18 18 18 19 19 19 20 18 16 16 17 15 14 12 12 12 9 9 12 12 10 7 8 9 9 7 5 4 6 8 10 11 11 10 10 12 14 14 15 16 19 20 19 18
13 17 20 21 21 22 22 22 22 21 19 18 19 19 19 17 18 21 20 20 22 22 21 21 21 21 20 18 19 19 17 15 15 14 13 12 13 14 13 11 10 10 11 10 9 8 8 11 13 13 12 13 13 13 13 15 15 15 16 17 19 19 18
9 9 13 16 18 19 19 19 21 23 23 21 23 26 27 25 25 26 24 23 26 26 23 23 23 23 22 21 21 21 19 18 17 16 16 16 15 15 13 12 11 11 11 11 10 10 11 12 13 14 14 15 15 15 15 16 15 15 15 17 17 18 18
9 7 6 7 8 8 8 9 12 15 17 20 23 27 30 27 25 25 26 27 28 27 25 25 25 25 25 24 23 22 22 21 19 19 19 18 16 15 15 13 11 11 11 11 10 11 12 13 15 15 15 16 16 17 17 17 16 15 15 15 16 16 17
6 4 3 2 4 6 7 8 10 12 14 17 20 22 23 23 22 23 25 27 30 29 28 28 28 29 29 27 25 25 26 24 22 21 21 20 18 17 16 14 12 12 11 11 11 12 13 15 16 16 16 17 17 18 18 18 18 17 17 17 17 17 17
3 3 3 2 1 3 5 6 8 13 16 17 18 19 20 22 24 24 24 27 30 31 30 30 30 30 31 30 29 29 29 27 24 23 23 22 20 18 16 13 12 12 12 11 12 14 16 16 17 18 18 18 18 17 18 18 18 18 19 19 19 19 19
4 3 4 3 2 1 2 4 5 9 13 14 16 17 18 20 23 24 24 25 29 32 32 31 32 32 31 31 31 30 27 25 23 22 21 20 19 17 15 13 12 13 13 14 15 16 17 17 18 19 20 19 18 17 17 17 18 18 18 19 20 20 20
4 2 2 3 2 3 3 4 5 7 9 12 15 17 18 19 20 21 23 24 28 32 33 31 31 32 33 32 31 30 27 24 24 22 20 19 17 15 12 10 11 13 15 17 18 19 19 19 19 19 20 20 20 20 20 20 19 19 19 20 21 21 21
4 2 2 2 3 4 3 3 5 7 8 10 12 14 16 18 18 18 20 23 26 29 31 30 28 29 32 33 33 33 31 29 27 23 21 18 16 16 15 12 12 13 15 17 19 19 19 18 17 17 17 19 21 22 23 22 23 23 23 23 24 23 22
3 3 3 4 5 5 3 4 6 7 9 10 10 10 13 15 15 15 16 21 25 25 26 27 28 28 30 33 35 35 34 32 27 22 20 20 20 20 18 15 13 13 14 16 17 17 15 14 14 15 16 18 20 22 23 23 24 24 23 23 24 24 23
3 3 4 4 4 4 3 4 5 6 8 9 9 9 11 13 14 13 13 18 23 22 20 22 27 30 31 33 35 35 33 31 26 21 22 23 23 21 18 14 13 15 16 16 17 17 16 16 17 19 19 20 21 22 24 24 25 24 22 22 23 25 24
2 2 3 4 3 3 4 5 5 6 8 9 10 9 10 11 13 13 13 16 20 20 19 20 25 30 31 31 32 32 32 31 27 25 25 23 20 18 16 15 15 15 15 15 16 18 18 20 21 22 22 23 24 25 25 25 24 22 20 20 22 25 26
3 3 4 4 3 4 5 7 6 6 8 10 10 10 10 11 12 13 14 17 19 19 20 20 24 29 31 30 30 30 31 30 27 24 21 17 14 15 15 14 14 14 14 15 16 17 19 21 23 24 25 26 26 26 26 26 25 21 20 22 24 26 27
5 6 6 5 5 6 7 7 7 6 8 10 11 11 11 11 13 15 17 19 19 19 19 19 21 25 28 29 30 29 29 28 24 19 15 12 12 13 13 12 12 15 17 17 18 20 22 24 25 26 27 28 27 28 28 28 27 24 23 25 27 28 29
8 8 8 7 7 8 7 7 7 7 9 10 12 13 12 13 16 19 20 20 18 18 17 17 18 21 23 26 28 27 26 25 21 17 14 12 11 11 11 9 12 17 19 18 20 22 23 24 26 27 28 29 30 31 32 32 31 31 30 31 32 33 34
10 9 9 8 9 9 9 9 9 8 9 11 12 13 13 14 19 22 20 18 16 16 16 16 18 21 23 25 26 25 23 22 20 17 15 13 11 9 9 12 15 17 18 19 20 22 23 25 26 28 29 31 32 33 35 35 36 37 37 38 40 40 40
11 10 10 10 10 11 11 11 10 10 11 11 13 15 16 17 21 22 21 18 17 15 15 15 17 20 23 24 24 23 21 19 18 17 16 15 15 13 12 15 17 17 18 20 21 22 25 27 29 31 32 33 35 36 38 39 39 39 40 40 39 38 36
13 13 12 12 13 13 13 12 11 11 11 12 15 18 20 21 23 23 21 19 18 15 13 13 15 18 20 21 22 21 19 18 17 18 19 18 17 16 14 14 17 18 20 22 23 25 28 30 33 35 35 36 36 36 36 36 36 36 35 34 32 30 27
16 16 16 16 15 15 14 13 12 12 12 15 17 20 21 22 22 21 19 18 17 15 11 11 14 15 16 17 18 17 17 15 15 17 18 18 18 18 15 15 18 21 21 23 25 27 29 31 31 31 31 30 29 28 27 27 27 27 26 25 24 24 23
18 18 18 17 17 17 16 14 13 14 16 18 19 21 22 22 20 18 18 17 16 13 11 11 13 14 13 13 12 12 12 11 11 12 14 15 15 16 16 17 20 21 21 22 24 25 26 25 24 22 22 21 20 19 19 20 20 20 20 20 20 22 22
Wind_Direction
158 158 156 162 163 149 122 102 98 93 86 86 88 91 101 108 115 121 115 98 86 98 120 133 134 135 160 165 147 139 143 120 105 109 111 135 160 167 217 240 252 267 266 265 268 266 264 266 264 265 270 271 275 278 275 276 276 265 253 245 241 247 256
166 158 158 160 151 137 123 112 111 111 104 102 102 100 103 107 113 121 123 116 107 110 125 133 146 156 156 158 155 158 168 156 129 117 108 106 111 98 74 61 17 351 352 343 316 301 284 274 275 294 304 293 286 288 283 276 279 274 258 247 238 236 249
160 151 158 159 148 141 140 142 140 124 113 109 103 99 98 100 106 115 121 121 112 105 101 100 112 129 127 129 144 160 177 183 168 153 146 143 142 134 116 101 89 74 61 54 43 34 17 344 322 312 310 303 297 300 295 279 273 278 274 266 262 259 267
155 157 167 163 154 152 152 154 143 128 123 112 101 98 98 98 102 108 115 117 113 107 100 93 93 102 107 107 111 124 135 147 165 176 185 192 193 187 174 161 140 130 130 115 105 99 46 356 319 302 304 310 306 303 300 287 274 273 279 282 284 288 284
159 166 177 165 160 161 158 155 153 156 157 130 110 105 99 100 102 103 111 115 118 118 110 103 104 109 114 115 113 116 117 117 125 134 155 183 200 188 183 187 189 197 214 231 242 244 250 264 284 308 317 316 305 291 284 285 283 280 286 293 296 305 295
163 169 178 166 166 168 162 163 167 173 178 168 153 138 119 115 111 105 106 110 118 122 119 118 114 104 106 118 121 119 116 115 114 113 117 125 124 134 157 178 199 214 222 224 216 226 317 292 279 309 300 293 302 311 315 319 311 302 307 320 322 334 343
163 168 180 173 173 173 167 171 177 181 186 190 197 199 163 132 128 125 115 109 111 114 119 124 114 101 99 114 121 117 112 107 101 98 102 101 105 112 132 181 222 240 233 210 173 132 32 313 238 267 287 297 319 341 357 354 329 317 311 326 336 329 327
166 166 177 179 179 179 176 175 179 189 195 202 215 224 204 166 161 160 139 128 127 121 122 125 126 130 137 136 123 113 102 95 89 81 75 68 67 68 68 25 342 14 1 342 332 270 286 290 276 280 311 331 336 343 352 359 352 337 313 256 44 35 11
174 167 173 184 185 183 188 182 179 193 202 208 220 227 213 194 186 178 156 148 146 136 133 137 140 149 157 152 135 129 117 107 100 89 82 74 67 64 60 43 34 36 21 5 358 350 339 323 313 314 328 339 339 345 349 351 4 1 344 300 210 109 76
181 173 172 187 190 184 194 194 184 193 204 213 224 232 226 214 210 203 178 160 156 157 153 156 159 156 161 161 146 146 139 128 118 105 97 91 86 80 73 63 53 49 33 13 5 356 350 342 332 329 330 333 336 340 340 330 326 346 0 344 296 273 276
183 180 176 189 196 186 190 198 193 193 204 217 226 233 234 227 228 229 221 204 176 174 172 178 189 173 172 180 166 166 160 140 141 131 120 108 100 94 80 69 63 59 47 33 37 27 3 350 339 333 325 321 318 313 312 310 311 316 311 313 306 281 273
179 181 180 192 201 193 192 201 204 200 204 217 225 231 237 236 240 244 246 253 242 223 211 204 209 191 189 204 194 196 206 160 169 168 131 130 108 104 89 75 66 52 36 36 44 29 22 26 12 359 344 328 317 304 304 305 304 309 291 264 266 275 277
181 181 181 189 197 197 194 196 205 207 204 212 222 229 238 244 249 254 259 269 269 258 252 239 234 215 205 216 213 217 223 179 193 234 238 205 226 111 64 55 69 53 30 26 29 11 6 11 8 6 4 357 348 332 326 317 302 304 302 280 275 282 286
186 185 186 188 191 199 201 198 207 215 209 212 226 233 235 240 249 253 254 264 269 265 262 254 248 238 227 228 220 218 225 196 196 226 244 249 263 275 329 314 309 1 20 20 23 18 359 347 345 353 355 355 357 345 330 318 303 301 304 300 292 290 291
195 194 196 197 200 209 209 199 204 216 214 214 227 238 237 232 242 253 252 252 258 261 262 258 253 246 240 239 229 222 235 234 199 211 237 262 264 265 272 224 249 286 334 355 360 11 342 295 304 330 326 315 312 309 302 295 291 294 302 309 309 308 310
205 202 202 203 209 216 210 198 203 214 220 219 225 240 247 241 245 255 256 248 247 252 254 253 254 252 245 241 238 236 245 254 225 217 239 257 243 254 278 283 238 264 296 322 332 344 337 315 320 290 266 277 289 298 301 297 293 297 306 312 315 316 316
208 204 204 205 210 215 211 205 204 209 221 227 228 235 240 244 253 255 256 251 244 246 248 246 250 254 251 243 241 243 248 253 242 233 246 251 217 231 258 274 255 261 285 306 315 329 333 317 316 295 283 288 292 292 295 290 287 291 295 298 302 303 303
205 205 205 203 205 209 211 212 207 204 213 225 233 234 228 236 251 249 253 258 251 247 248 245 244 247 247 243 241 243 248 250 244 238 243 238 216 221 240 253 250 249 264 282 293 298 279 269 279 287 291 292 286 280 277 275 277 281 284 289 295 299 298
204 208 209 210 214 219 222 225 221 219 222 227 239 244 240 248 257 250 251 257 254 250 247 242 243 244 242 240 242 245 243 240 239 238 238 232 227 233 243 248 247 247 258 270 276 275 272 276 284 291 291 291 291 288 284 283 285 287 287 289 292 296 300
188 199 209 216 224 227 228 231 232 233 240 245 247 248 249 255 260 257 254 251 251 253 246 238 240 243 241 239 243 246 240 234 236 238 237 237 241 248 254 255 254 255 261 268 271 276 283 286 289 293 294 293 293 291 290 290 290 286 286 288 290 293 297
159 158 182 210 228 229 221 230 239 241 248 255 254 251 252 254 255 257 256 251 250 251 246 241 239 240 244 243 241 241 238 238 240 238 237 239 241 247 253 260 263 263 270 277 279 284 292 293 292 295 295 295 294 292 292 292 289 284 281 281 284 287 290
161 160 171 209 237 237 234 244 251 247 248 255 257 255 257 258 257 258 257 253 251 247 245 246 242 239 242 241 236 236 240 245 246 238 234 237 239 244 252 261 264 267 278 289 289 291 295 296 296 297 296 295 295 294 293 292 290 287 283 278 276 276 278
130 115 117 125 216 256 267 275 267 258 258 262 265 266 266 261 259 259 257 252 250 247 245 244 243 242 241 238 236 236 241 248 246 236 234 237 240 245 252 260 267 274 285 289 289 292 294 296 299 298 297 296 294 292 291 291 290 288 287 285 283 279 275
103 108 124 117 101 122 270 279 271 264 264 263 262 265 266 263 264 267 262 253 249 250 250 244 240 240 240 238 238 237 238 240 234 228 230 234 239 249 259 264 268 277 285 290 295 296 293 296 299 298 298 298 296 296 295 294 293 293 292 290 288 285 280
109 130 149 144 164 192 222 249 261 262 263 259 252 250 251 254 261 268 267 259 252 253 255 249 243 241 239 239 239 234 229 227 222 220 224 230 237 248 254 255 261 272 283 291 298 299 297 300 304 301 302 303 304 305 306 305 306 305 303 299 293 289 285
124 153 189 241 269 274 257 247 253 248 248 252 251 249 248 247 249 256 261 261 257 253 252 248 243 240 236 234 233 229 226 228 227 225 226 229 231 229 231 243 258 269 281 288 293 294 293 301 307 303 301 301 303 306 307 308 310 309 307 303 297 294 292
167 199 247 283 297 301 273 240 249 246 244 247 247 252 255 252 253 255 254 255 256 254 251 243 236 234 232 230 229 229 230 232 231 230 230 231 230 230 241 257 257 254 267 277 281 283 284 291 294 289 287 291 296 300 301 302 304 305 302 296 291 290 291
206 249 287 300 309 311 291 269 266 261 259 257 250 250 257 260 266 268 259 253 254 255 252 243 236 235 234 233 231 230 231 232 232 234 235 235 239 244 253 260 254 255 266 267 263 264 267 271 274 276 280 285 289 291 291 295 300 304 300 293 288 288 289
221 259 291 302 310 313 298 287 281 271 268 268 261 255 256 260 269 275 272 264 258 254 250 243 237 232 229 230 231 228 229 232 235 235 234 239 249 256 260 264 267 271 274 268 262 264 268 273 277 280 283 286 289 290 291 295 302 304 297 288 284 284 285
224 234 255 274 282 280 283 291 294 282 274 276 274 267 257 255 261 265 265 264 262 255 250 246 239 232 229 232 234 230 228 232 233 233 235 244 251 253 263 277 277 272 267 263 263 266 269 273 277 281 285 289 291 292 293 297 302 299 287 280 278 278 276
229 238 249 259 266 271 286 297 296 287 278 274 271 266 261 259 257 253 254 259 263 261 259 255 246 238 237 239 238 233 231 231 228 224 227 234 239 254 280 291 273 264 263 262 264 268 270 273 278 282 286 289 289 290 292 295 296 291 282 279 279 278 277
245 250 253 254 260 271 286 293 285 278 275 271 268 265 262 257 252 251 255 262 266 265 263 259 251 244 242 242 239 235 230 227 224 219 219 225 239 267 293 286 257 257 262 265 270 273 272 275 279 282 284 284 285 287 290 291 290 287 283 281 280 281 281
260 260 256 254 258 263 275 284 284 275 267 265 266 263 257 249 248 253 259 264 265 264 262 261 255 249 245 242 239 234 226 223 223 218 215 220 227 238 256 258 254 259 265 268 271 273 274 277 279 280 281 282 284 286 287 287 287 286 284 283 282 282 282
264 260 256 257 258 260 269 281 283 273 265 262 261 257 250 244 247 256 262 266 268 272 272 266 255 247 245 242 236 230 223 220 220 216 215 220 224 225 237 254 260 263 267 268 270 272 275 277 278 278 279 280 282 284 285 285 285 285 285 285 286 287 287
259 256 255 258 260 262 267 274 272 266 263 259 257 254 251 248 251 257 261 266 273 281 282 265 248 241 240 237 232 229 229 227 226 226 228 232 234 233 237 253 265 267 266 267 270 274 276 277 278 279 280 281 282 283 284 285 286 287 288 289 289 289 287
258 257 257 259 262 263 264 268 269 262 252 248 250 252 252 252 252 251 250 257 269 278 273 247 232 227 228 229 230 232 237 239 239 237 236 236 240 242 241 248 259 265 268 271 274 276 278 280 281 282 283 285 286 287 289 291 293 294 294 293 292 290 288
262 261 260 260 261 261 260 263 263 254 247 247 250 250 250 249 243 236 238 249 259 260 244 223 215 214 216 222 227 231 236 243 247 246 245 245 248 252 251 251 257 265 273 278 280 282 285 288 292 294 297 299 300 302 304 306 307 305 300 296 294 292 291
Height
1519 1520 1521 1522 1523 1523 1524 1524 1524 1524 1525 1525 1525 1526 1526 1526 1527 1527 1527 1527 1528 1528 1528 1528 1529 1529 1530 1531 1532 1533 1533 1534 1534 1535 1536 1537 1538 1539 1539 1539 1540 1540 1540 1541 1541 1541 1540 1539 1539 1539 1539 1539 1539 1539 1539 1539 1539 1539 1540 1540 1541 1542 1542
1519 1520 1521 1522 1523 1523 1524 1524 1525 1525 1525 1526 1526 1526 1526 1526 1527 1527 1527 1527 1528 1528 1528 1528 1529 1529 1530 1531 1532 1532 1533 1534 1535 1535 1536 1537 1538 1539 1539 1539 1540 1540 1540 1540 1540 1540 1539 1538 1538 1538 1538 1538 1538 1538 1538 1538 1538 1538 1538 1538 1539 1540 1541
1519 1520 1521 1522 1523 1524 1524 1525 1525 1525 1526 1526 1526 1526 1526 1527 1527 1527 1528 1528 1528 1529 1529 1529 1529 1529 1530 1530 1531 1532 1532 1533 1535 1535 1536 1537 1538 1538 1539 1539 1539 1539 1540 1540 1540 1539 1538 1538 1537 1537 1538 1537 1537 1537 1537 1537 1537 1537 1537 1537 1538 1538 1539
1518 1519 1520 1521 1522 1524 1524 1525 1526 1526 1526 1526 1527 1527 1527 1527 1528 1528 1528 1529 1529 1529 1529 1530 1530 1530 1530 1531 1531 1532 1532 1533 1534 1535 1536 1536 1537 1537 1538 1539 1539 1539 1539 1539 1539 1538 1538 1537 1537 1537 1537 1537 1537 1536 1536 1535 1535 1535 1536 1536 1537 1537 1538
1516 1518 1519 1520 1522 1523 1524 1525 1526 1526 1527 1527 1527 1527 1528 1528 1528 1528 1529 1529 1530 1530 1530 1530 1531 1531 1531 1532 1532 1533 1533 1533 1534 1535 1535 1536 1536 1536 1537 1537 1537 1537 1538 1538 1538 1538 1537 1537 1536 1536 1536 1536 1536 1535 1535 1534 1534 1534 1534 1535 1536 1536 1536
1515 1517 1518 1520 1521 1523 1524 1525 1526 1526 1526 1527 1527 1527 1528 1528 1529 1529 1529 1530 1530 1531 1531 1531 1532 1532 1532 1533 1533 1533 1534 1534 1535 1535 1535 1535 1536 1536 1536 1536 1536 1537 1537 1537 1537 1537 1537 1536 1536 1536 1536 1535 1535 1534 1533 1533 1533 1534 1534 1534 1535 1535 1535
1513 1515 1517 1519 1521 1522 1524 1525 1526 1526 1526 1527 1527 1527 1528 1529 1529 1529 1530 1530 1531 1531 1532 1532 1533 1533 1534 1534 1534 1534 1535 1535 1535 1535 1535 1535 1536 1536 1536 1536 1536 1536 1536 1536 1536 1536 1536 1536 1536 1535 1535 1535 1534 1533 1533 1532 1533 1533 1533 1533 1534 1534 1535
1512 1514 1516 1518 1520 1522 1523 1524 1525 1526 1526 1526 1527 1527 1528 1528 1529 1529 1530 1530 1531 1531 1532 1533 1533 1534 1534 1534 1534 1535 1535 1535 1536 1536 1536 1536 1536 1536 1536 1536 1536 1536 1536 1536 1536 1536 1536 1536 1535 1535 1535 1534 1533 1532 1532 1532 1532 1533 1533 1533 1533 1533 1533
1512 1513 1516 1518 1520 1521 1522 1524 1525 1526 1526 1526 1526 1527 1528 1528 1529 1529 1530 1530 1531 1531 1532 1532 1533 1534 1534 1534 1535 1535 1535 1535 1536 1536 1536 1536 1536 1536 1536 1536 1536 1536 1536 1536 1536 1536 1536 1536 1535 1535 1535 1534 1533 1532 1532 1531 1531 1532 1532 1532 1533 1532 1532
1511 1513 1515 1517 1519 1521 1522 1523 1525 1526 1526 1527 1527 1527 1528 1528 1529 1529 1530 1530 1531 1531 1532 1532 1533 1533 1534 1534 1534 1535 1535 1535 1536 1536 1536 1536 1536 1536 1536 1536 1536 1536 1536 1536 1536 1536 1536 1536 1535 1535 1535 1534 1534 1533 1532 1532 1531 1531 1531 1532 1532 1531 1531
1512 1514 1516 1517 1518 1520 1522 1523 1524 1526 1527 1527 1527 1527 1528 1529 1529 1530 1530 1530 1531 1531 1532 1532 1532 1533 1533 1534 1534 1534 1535 1535 1536 1536 1536 1536 1536 1536 1536 1536 1536 1536 1536 1536 1535 1535 1535 1535 1535 1534 1534 1534 1533 1533 1533 1532 1532 1532 1531 1531 1531 1530 1529
1512 1514 1516 1518 1519 1520 1522 1523 1524 1526 1527 1527 1527 1528 1529 1529 1530 1530 1530 1531 1531 1531 1532 1532 1532 1533 1533 1533 1534 1534 1535 1535 1535 1536 1536 1536 1536 1537 1536 1536 1536 1536 1536 1535 1535 1535 1534 1534 1534 1534 1533 1533 1533 1532 1533 1532 1532 1532 1531 1530 1530 1529 1529
1511 1513 1515 1517 1518 1520 1522 1523 1524 1525 1526 1527 1527 1528 1529 1529 1530 1530 1531 1531 1531 1531 1532 1532 1532 1533 1533 1533 1534 1534 1534 1535 1535 1535 1536 1536 1536 1536 1536 1536 1536 1536 1536 1535 1535 1534 1534 1534 1533 1533 1533 1532 1532 1532 1532 1532 1531 1530 1531 1530 1529 1528 1528
1510 1512 1514 1515 1517 1519 1521 1522 1524 1526 1526 1527 1527 1527 1528 1528 1529 1529 1530 1530 1530 1531 1531 1532 1532 1532 1533 1533 1533 1534 1534 1534 1535 1535 1535 1535 1535 1535 1535 1535 1535 1535 1535 1535 1534 1534 1534 1534 1533 1533 1532 1532 1532 1531 1531 1531 1530 1529 1528 1529 1528 1527 1527
1510 1511 1513 1514 1516 1518 1519 1521 1523 1525 1526 1526 1526 1526 1527 1528 1528 1528 1529 1529 1530 1530 1530 1531 1532 1532 1532 1533 1533 1533 1533 1534 1534 1534 1534 1534 1534 1534 1534 1535 1534 1534 1534 1534 1534 1534 1534 1534 1533 1533 1533 1532 1532 1532 1531 1531 1530 1529 1527 1526 1526 1525 1524
1509 1511 1512 1514 1515 1517 1519 1520 1521 1522 1524 1525 1526 1527 1527 1528 1528 1528 1528 1529 1529 1529 1530 1530 1531 1531 1531 1532 1532 1532 1533 1533 1533 1533 1533 1533 1533 1532 1533 1533 1533 1532 1532 1532 1532 1532 1532 1532 1532 1532 1532 1532 1532 1531 1531 1530 1529 1528 1526 1524 1524 1523 1522
1509 1509 1510 1512 1514 1515 1517 1518 1518 1520 1522 1524 1525 1526 1527 1528 1528 1528 1528 1528 1528 1528 1529 1529 1530 1530 1530 1530 1531 1531 1531 1532 1532 1532 1531 1531 1532 1531 1531 1531 1531 1531 1530 1530 1530 1531 1531 1531 1531 1531 1530 1530 1530 1530 1530 1529 1528 1527 1525 1523 1522 1522 1521
1508 1508 1509 1510 1511 1513 1514 1515 1516 1518 1519 1521 1523 1525 1526 1527 1528 1528 1528 1527 1527 1527 1527 1528 1528 1529 1529 1530 1530 1529 1530 1530 1531 1531 1530 1530 1530 1530 1530 1529 1530 1529 1529 1529 1529 1529 1529 1530 1530 1529 1529 1528 1528 1528 1527 1527 1526 1525 1524 1523 1521 1520 1520
1506 1507 1508 1509 1510 1511 1512 1513 1514 1516 1516 1517 1520 1524 1525 1526 1527 1527 1527 1527 1527 1526 1526 1526 1527 1527 1528 1529 1528 1528 1528 1528 1529 1529 1529 1529 1528 1528 1528 1528 1528 1528 1528 1528 1528 1528 1528 1528 1528 1527 1527 1526 1526 1525 1525 1524 1524 1523 1523 1521 1520 1519 1518
1504 1506 1507 1509 1509 1510 1510 1510 1511 1513 1514 1516 1519 1522 1523 1524 1525 1525 1525 1525 1525 1524 1524 1524 1525 1525 1525 1526 1526 1526 1526 1526 1527 1527 1528 1527 1527 1526 1526 1526 1526 1527 1527 1527 1527 1526 1526 1526 1526 1525 1525 1524 1524 1523 1522 1522 1522 1521 1521 1520 1519 1518 1517
1501 1504 1506 1507 1508 1508 1508 1508 1508 1509 1511 1514 1517 1519 1519 1520 1521 1522 1522 1522 1523 1523 1522 1522 1523 1523 1522 1523 1524 1524 1524 1524 1524 1524 1525 1526 1526 1525 1524 1525 1525 1525 1525 1525 1525 1525 1524 1524 1524 1524 1523 1523 1522 1521 1520 1520 1519 1519 1519 1518 1517 1517 1516
1501 1502 1503 1505 1506 1506 1506 1506 1506 1506 1509 1512 1514 1516 1516 1517 1518 1518 1518 1518 1520 1521 1520 1520 1519 1519 1519 1520 1521 1521 1521 1521 1521 1521 1522 1523 1524 1524 1523 1523 1523 1523 1523 1524 1524 1523 1523 1522 1522 1522 1521 1521 1520 1519 1518 1518 1517 1517 1517 1516 1515 1515 1515
1501 1501 1502 1503 1504 1504 1505 1506 1505 1506 1508 1510 1512 1513 1514 1514 1515 1515 1515 1515 1517 1518 1518 1517 1516 1516 1516 1516 1517 1517 1518 1519 1519 1519 1519 1520 1520 1521 1521 1521 1521 1521 1521 1522 1522 1522 1521 1520 1520 1519 1519 1518 1518 1517 1516 1516 1515 1515 1514 1513 1513 1513 1512
1500 1501 1501 1502 1502 1503 1503 1505 1505 1506 1507 1508 1509 1510 1511 1511 1512 1512 1512 1513 1514 1514 1514 1514 1514 1514 1513 1513 1514 1515 1517 1518 1518 1518 1518 1518 1518 1518 1518 1519 1518 1518 1519 1519 1519 1520 1519 1518 1518 1517 1516 1516 1515 1515 1514 1513 1513 1513 1512 1511 1510 1510 1509
1499 1499 1500 1500 1500 1501 1502 1503 1505 1506 1507 1507 1508 1508 1509 1509 1509 1510 1509 1509 1510 1510 1509 1510 1511 1511 1511 1512 1512 1513 1514 1516 1516 1517 1518 1518 1518 1517 1517 1517 1517 1516 1516 1516 1516 1516 1516 1515 1514 1514 1513 1512 1512 1511 1511 1510 1510 1510 1509 1508 1507 1507 1506
1497 1497 1497 1498 1498 1499 1501 1502 1504 1505 1505 1506 1506 1506 1506 1507 1507 1508 1507 1507 1506 1506 1506 1507 1508 1508 1508 1509 1510 1510 1511 1512 1513 1514 1515 1516 1516 1516 1515 1516 1516 1514 1513 1513 1513 1514 1514 1513 1511 1510 1510 1509 1508 1508 1507 1507 1506 1506 1506 1504 1503 1503 1503
1495 1495 1495 1496 1497 1498 1500 1501 1502 1503 1503 1504 1504 1504 1504 1504 1505 1505 1505 1504 1502 1502 1503 1505 1506 1506 1506 1506 1507 1507 1509 1510 1510 1512 1513 1513 1513 1514 1513 1514 1514 1513 1512 1512 1512 1512 1512 1511 1509 1508 1507 1506 1506 1505 1504 1504 1504 1503 1502 1502 1500 1499 1500
1494 1494 1494 1495 1496 1497 1498 1499 1500 1501 1501 1501 1501 1501 1502 1502 1501 1502 1502 1501 1499 1500 1502 1503 1504 1504 1504 1504 1505 1505 1507 1508 1508 1509 1510 1510 1511 1512 1512 1512 1512 1511 1511 1510 1511 1511 1511 1510 1508 1506 1505 1504 1503 1503 1502 1501 1501 1500 1499 1498 1497 1496 1496
1493 1493 1494 1494 1495 1496 1497 1497 1498 1498 1499 1499 1499 1499 1499 1499 1499 1499 1499 1498 1497 1498 1500 1501 1501 1502 1501 1502 1503 1503 1505 1506 1506 1506 1507 1508 1509 1509 1510 1510 1509 1508 1508 1508 1508 1508 1508 1508 1506 1504 1503 1502 1501 1500 1499 1499 1498 1497 1497 1496 1495 1494 1493
1492 1493 1493 1494 1494 1495 1495 1495 1496 1496 1496 1496 1497 1497 1497 1497 1497 1497 1496 1495 1495 1496 1498 1498 1499 1499 1500 1501 1501 1502 1503 1503 1504 1505 1506 1507 1508 1508 1508 1509 1508 1506 1506 1505 1505 1505 1505 1504 1503 1502 1500 1499 1498 1496 1495 1495 1495 1495 1494 1493 1492 1492 1490
1491 1491 1492 1492 1493 1493 1493 1493 1494 1494 1494 1495 1495 1495 1495 1495 1495 1494 1493 1493 1493 1494 1495 1496 1497 1497 1498 1499 1500 1500 1500 1501 1502 1504 1505 1506 1506 1506 1506 1506 1506 1506 1505 1503 1502 1501 1502 1501 1501 1499 1498 1496 1494 1493 1492 1492 1492 1491 1491 1490 1488 1487 1486
1490 1490 1490 1490 1490 1491 1491 1491 1492 1492 1493 1493 1493 1493 1493 1493 1492 1491 1491 1492 1492 1492 1493 1494 1495 1496 1496 1497 1498 1498 1499 1499 1501 1502 1503 1504 1504 1504 1504 1504 1504 1504 1503 1501 1499 1498 1498 1498 1498 1496 1495 1493 1491 1490 1490 1489 1488 1487 1486 1485 1484 1483 1481
1488 1488 1488 1488 1488 1489 1489 1489 1490 1490 1491 1491 1491 1491 1491 1490 1488 1488 1489 1490 1490 1491 1491 1492 1493 1493 1494 1494 1495 1496 1497 1498 1499 1500 1501 1502 1502 1503 1503 1502 1501 1501 1500 1498 1497 1496 1495 1495 1494 1493 1492 1490 1488 1487 1486 1484 1484 1482 1481 1479 1478 1477 1475
1486 1486 1486 1486 1486 1486 1487 1487 1488 1488 1488 1489 1489 1488 1488 1487 1486 1486 1487 1487 1488 1489 1490 1490 1491 1491 1491 1492 1494 1495 1495 1496 1497 1497 1498 1500 1501 1502 1502 1500 1498 1497 1496 1496 1495 1494 1493 1492 1491 1490 1489 1487 1485 1484 1482 1480 1478 1477 1476 1474 1472 1471 1470
1484 1484 1484 1484 1484 1484 1484 1485 1485 1486 1486 1486 1486 1485 1485 1484 1484 1484 1485 1485 1486 1487 1488 1489 1489 1490 1490 1491 1492 1493 1494 1495 1496 1496 1497 1498 1499 1499 1499 1497 1494 1493 1494 1493 1492 1491 1490 1489 1487 1486 1485 1483 1481 1479 1478 1475 1474 1472 1471 1469 1468 1466 1465
1481 1481 1481 1481 1482 1482 1482 1482 1483 1483 1484 1483 1482 1482 1482 1481 1481 1482 1483 1483 1483 1485 1486 1487 1488 1489 1489 1490 1491 1491 1492 1493 1494 1495 1495 1496 1496 1496 1496 1494 1491 1490 1491 1490 1489 1488 1487 1485 1484 1482 1480 1479 1477 1475 1474 1472 1470 1469 1467 1466 1465 1464 1463
1478 1478 1478 1479 1479 1479 1479 1480 1480 1480 1480 1480 1480 1479 1479 1479 1479 1480 1481 1481 1482 1483 1484 1486 1487 1488 1488 1489 1490 1490 1491 1492 1493 1493 1493 1493 1493 1493 1492 1491 1490 1489 1489 1488 1487 1486 1484 1482 1480 1479 1477 1476 1474 1473 1471 1470 1468 1467 1465 1464 1463 1462 1461